Location: Unspecified
(35.7250°N, 0.0000°E)
Time: 18:55:52
(UTC+00:00)

Vanguard 2 - Pass Details

Date: 18 June 2019
Orbit: 553 x 2938 km, 32.9° (Epoch: 19 July)

Event Time Altitude Azimuth Distance (km) Brightness Sun altitude
Rises 06:41:51 0° 188° (S) 2,995 10.4 21.3°
Reaches altitude 10° 06:45:49 10° 153° (SSE) 2,404 10.3 22.1°
Maximum altitude 06:47:34 11° 134° (SE) 2,469 10.7 22.5°
Drops below altitude 10° 06:49:30 10° 117° (ESE) 2,762 11.3 22.8°
Sets 06:55:15 0° 87° (E) 4,338 12.7 24.0°
